Morgantown, WV

3:23 AM EDT on September 30, 2016 (GMT -0400)
Morgantown Municipal-Hart

Weather History for KMGW - April, 2014

Change the Weather History Date:

Tuesday, April 1, 2014

  Actual Average Record
Temperature  
Mean Temperature 56 °F 48 °F  
Max Temperature 77 °F 58 °F 84 °F (1986)
Min Temperature 35 °F 37 °F 20 °F (1964)
Degree Days  
Heating Degree Days 9 17  
Month to date heating degree days 9 17  
Since 1 July heating degree days 4998 4618  
Cooling Degree Days 0 0  
Month to date cooling degree days 0 0  
Year to date cooling degree days 0 2  
Growing Degree Days 5 (Base 50)    
Moisture  
Dew Point 29 °F    
Average Humidity 49    
Maximum Humidity 82    
Minimum Humidity 16    
Precipitation  
Precipitation 0.00 in 0.12 in 1.16 in (2007)
Month to date precipitation 0.00 0.12  
Year to date precipitation 7.93 9.18  
Sea Level Pressure  
Sea Level Pressure 30.01 in    
Wind  
Wind Speed 6 mph (SSW)    
Max Wind Speed 20 mph    
Max Gust Speed 31 mph    
Visibility 10 miles    
Events      
T = Trace of Precipitation, MM = Missing Value Source: NWS Daily Summary

Daily Weather History Graph

Daily Weather History Graph

Search for Another Location

Airport or City:

Trip Planner

Search our weather history database for the weather conditions in past years. The results will help you decide how hot, cold, wet, or windy it might be!

Date:

Astronomy

Apr. 01, 2014 Rise Set
Actual Time 7:03 AM EDT 7:43 PM EDT
Civil Twilight 6:36 AM EDT 8:10 PM EDT
Nautical Twilight 6:04 AM EDT 8:43 PM EDT
Astronomical Twilight 5:31 AM EDT 9:16 PM EDT
Moon 8:05 AM EDT (4/1) 10:04 PM EDT (4/1)
Length of Visible Light 13h 34m
Length of Day
12h 39m
Waxing Crescent, 4% of the Moon is Illuminated
Apr 1
Waxing Crescent
Apr 7
First Quarter
Apr 15
Full
Apr 22
Last Quarter
Apr 29
New

Hourly Weather History & Observations

Time (EDT) Temp. Windchill Dew Point Humidity Pressure Visibility Wind Dir Wind Speed Gust Speed Precip Events Conditions
12:53 AM 43.0 °F - 25.0 °F 49% 30.12 in 10.0 mi Calm Calm - N/A   Clear
1:53 AM 41.0 °F 39.0 °F 24.1 °F 51% 30.09 in 10.0 mi NNE 3.5 mph - N/A   Clear
2:53 AM 42.1 °F 40.2 °F 25.0 °F 51% 30.07 in 10.0 mi East 3.5 mph - N/A   Clear
3:53 AM 37.0 °F - 27.0 °F 67% 30.06 in 10.0 mi Calm Calm - N/A   Clear
4:53 AM 41.0 °F 38.0 °F 26.1 °F 55% 30.05 in 10.0 mi SSE 4.6 mph - N/A   Clear
5:53 AM 35.1 °F 32.2 °F 30.0 °F 82% 30.05 in 10.0 mi SSW 3.5 mph - N/A   Clear
6:53 AM 42.1 °F - 28.0 °F 58% 30.06 in 9.0 mi Calm Calm - N/A   Clear
7:53 AM 42.1 °F - 28.9 °F 60% 30.06 in 10.0 mi Calm Calm - N/A   Clear
8:53 AM 46.0 °F - 33.1 °F 61% 30.07 in 10.0 mi Calm Calm - N/A   Clear
9:53 AM 52.0 °F - 30.9 °F 45% 30.07 in 10.0 mi South 5.8 mph - N/A   Overcast
10:53 AM 57.9 °F - 32.0 °F 37% 30.03 in 10.0 mi South 5.8 mph - N/A   Mostly Cloudy
11:53 AM 62.1 °F - 33.1 °F 34% 30.01 in 10.0 mi SSW 6.9 mph - N/A   Mostly Cloudy
12:53 PM 68.0 °F - 37.0 °F 32% 29.97 in 10.0 mi SSW 8.1 mph 19.6 mph N/A   Clear
1:53 PM 72.0 °F - 36.0 °F 27% 29.94 in 10.0 mi SW 13.8 mph 23.0 mph N/A   Clear
2:53 PM 73.9 °F - 36.0 °F 25% 29.91 in 10.0 mi SW 8.1 mph 21.9 mph N/A   Clear
3:53 PM 75.9 °F - 28.9 °F 18% 29.89 in 9.0 mi WSW 12.7 mph 25.3 mph N/A   Clear
4:53 PM 75.9 °F - 26.1 °F 16% 29.89 in 10.0 mi WSW 13.8 mph 24.2 mph N/A   Clear
5:53 PM 75.0 °F - 27.0 °F 17% 29.91 in 10.0 mi West 9.2 mph 16.1 mph N/A   Clear
6:53 PM 73.9 °F - 25.0 °F 16% 29.92 in 10.0 mi Variable 4.6 mph - N/A   Clear
9:53 PM 63.0 °F - 28.0 °F 27% 29.97 in 10.0 mi SSW 5.8 mph - N/A   Clear
10:53 PM 64.0 °F - 28.9 °F 27% 29.99 in 10.0 mi Calm Calm - N/A   Clear
11:53 PM 57.0 °F - 30.9 °F 37% 30.01 in 10.0 mi South 3.5 mph - N/A   Clear